Location: Lewisville
(33.0462°N, 96.9942°W)
Time: 06:56:55
(UTC-05:00)

Hubble Space Telescope - Pass Details

Date: 30 August 2021
Orbit: 535 x 539 km, 28.5° (Epoch: 27 September)

Event Time Altitude Azimuth Distance (km) Brightness Sun altitude
Exits shadow 05:13:59 38° 159° (SSE) 813 1.6 -22.0°
Drops below altitude 10° 05:17:13 10° 114° (ESE) 1,773 3.9 -21.4°
Sets 05:19:33 0° 107° (ESE) 2,663 5.0 -21.0°
